Overview Statistics Trail Chart Weather Telemetry Raw packets
 

This is the latest recevied weather packets stored in our database for station/object W0WC. If no packets are shown the sender has not sent any weather packets the latest 10 day(s).

<< 16 17 18 19 20 21 22 >>
Time Temp. Humidity Pressure Rain* Wind** Luminosity Snow
1788579017 30° C 54% 1014.8 hPa 0 mm - 0 W/m² -
1788578711 30° C 53% 1014.8 hPa 0 mm - 0 W/m² -
1788578407 30° C 53% 1014.9 hPa 0 mm - 0 W/m² -
1788578102 30° C 53% 1014.7 hPa 0 mm - 0 W/m² -
1788577797 30.56° C 52% 1014.8 hPa 0 mm - 0 W/m² -
1788577492 30.56° C 51% 1014.5 hPa 0 mm - 0 W/m² -
1788577191 30.56° C 51% 1014.7 hPa 0 mm - 0 W/m² -
1788576887 30.56° C 51% 1014.5 hPa 0 mm - 0 W/m² -
1788576583 30.56° C 51% 1014.5 hPa 0 mm - 0 W/m² -
1788576284 30.56° C 50% 1014.2 hPa 0 mm - 0 W/m² -
1788575979 31.11° C 50% 1014.4 hPa 0 mm - 0 W/m² -
1788575674 31.11° C 50% 1014.4 hPa 0 mm - 0 W/m² -
1788575373 31.11° C 50% 1014.1 hPa 0 mm - 0 W/m² -
1788575068 30.56° C 50% 1014 hPa 0 mm - 0 W/m² -
1788574764 31.11° C 50% 1014 hPa 0 mm - 0 W/m² -
1788574463 31.11° C 49% 1014 hPa 0 mm - 0 W/m² -
1788574159 31.11° C 50% 1013.8 hPa 0 mm - 0 W/m² -
1788573858 31.11° C 49% 1013.9 hPa 0 mm - 0 W/m² -
1788573558 31.11° C 49% 1013.7 hPa 0 mm - 0 W/m² -
1788573256 31.67° C 49% 1013.6 hPa 0 mm - 0 W/m² -
1788572956 31.67° C 48% 1013.4 hPa 0 mm - 0 W/m² -
1788572652 31.67° C 47% 1013.4 hPa 0 mm - 0 W/m² -
1788572352 32.22° C 46% 1013.4 hPa 0 mm - 0 W/m² -
1788572048 32.22° C 45% 1013.5 hPa 0 mm - 0 W/m² -
1788571743 32.78° C 45% 1013.3 hPa 0 mm - 0 W/m² -

* Rain latest hour (hover to see other rain measurements)
** Current wind speed in m/s (hover to see current wind gust speed)